SCP
-0 -0 -0 -0 -0 -0 -0 -0 -0 -0 -0 0 0 0 0 0 0 0 0 0 0 0 0 -0 -1 -0 -0 -0 -0 -0 -0 -0 -0 -1 -1 -1 -1 -0 -0 -0 -0 -0 -0 -0 -0 -0 0 0 -0
0 -0 0 -0 -0 -0 -0 -0 -0 0 -0 0 0 0 -0 0 0 0 0 0 0 0 0 -0 -1 -1 -1 -0 -0 -0 -0 -0 -0 -0 -0 -0 -0 -0 -0 -0 -0 -0 -0 -0 -0 0 0 0 0
0 0 -0 -0 0 0 -0 -0 -0 0 -0 -0 0 0 0 0 0 0 0 0 0 0 0 -0 -1 -2 -1 -1 -1 -1 -0 -0 -0 -0 -0 -0 -0 -0 -0 -0 0 0 -0 -0 0 0 0 0 0
0 -0 -0 -0 0 -0 -0 -0 -0 0 0 0 0 0 0 0 0 0 0 0 0 1 1 0 -1 -1 -1 -1 -1 -1 -0 -0 -0 -0 -0 -0 -0 0 0 0 0 0 0 0 0 0 0 0 0
0 -0 -0 -0 0 0 -0 -0 -0 0 0 0 0 0 0 0 0 1 0 0 0 0 1 0 -0 -1 -1 -0 -0 -0 -0 -0 -0 -0 -0 -0 -0 0 0 0 0 0 0 0 0 0 0 0 -0
-0 -0 -0 -0 0 0 -0 -0 0 0 0 0 0 0 0 0 0 0 0 0 1 1 1 0 -0 -1 -1 -0 -0 -0 -0 -0 -0 -0 -0 -0 0 0 0 0 0 0 0 0 0 0 0 0 -0
0 -0 -0 0 0 0 0 -0 -0 0 0 0 0 0 0 0 0 0 0 0 1 1 1 0 0 -0 -1 -1 -0 -0 -0 -0 -0 -0 0 0 0 0 0 0 0 0 0 0 0 0 0 -0 -0
0 -0 -0 -0 0 0 0 -0 -0 0 0 -0 -0 0 0 0 0 0 0 0 1 1 0 0 0 0 0 -0 -1 -0 -0 -0 -0 -0 -0 -0 0 0 0 0 0 -0 -0 -0 0 0 -0 -0 -0
-0 -0 -0 -0 0 0 0 0 0 0 0 0 0 0 0 0 0 0 0 0 0 0 0 0 0 0 0 0 -0 -0 -0 -0 -0 -0 -0 -0 0 0 0 -0 -0 -0 -0 -0 0 0 0 -0 -0
-0 -0 0 0 0 0 0 -0 0 -0 -0 0 0 0 0 0 0 0 0 0 0 0 0 0 -0 0 0 0 0 0 0 -0 -0 -0 -0 0 0 0 0 -0 -0 -0 -0 -0 0 0 0 0 0
-0 -0 0 0 0 0 0 -0 -0 -0 0 -0 -0 0 -0 -0 0 0 0 0 0 0 0 0 -0 -0 -0 0 0 0 0 0 0 -0 -0 0 0 0 0 0 0 0 0 0 0 0 0 0 0
-0 0 0 0 0 -0 -0 -0 -0 0 0 -0 0 0 -0 0 0 0 0 -0 0 0 0 0 0 0 -0 -0 0 0 0 0 0 0 0 0 0 0 0 0 0 0 0 0 0 0 0 0 0
0 -0 0 -0 0 -0 -0 -0 -0 -0 -0 0 -0 -0 0 0 0 0 0 0 -0 0 0 0 0 0 0 0 0 0 0 0 0 0 0 0 0 0 0 0 0 0 0 0 0 0 0 0 0
0 -0 -0 -0 0 -0 -0 -0 0 -0 -0 -0 -1 -0 0 1 0 0 -0 -0 -0 -0 -0 0 0 0 0 0 0 0 0 0 -0 -0 -0 -0 -0 -0 -0 -0 -0 -0 0 0 0 0 0 0 0
0 0 -0 -0 0 0 0 -0 -0 0 0 -0 -1 -0 0 1 1 0 0 0 -0 -0 -0 0 0 0 0 0 0 0 -0 -0 -0 -0 -0 -0 -0 -0 -0 -0 -0 -0 -0 0 0 0 0 0 0
0 -0 -0 0 0 -0 -0 0 0 -0 0 -0 0 0 0 0 0 0 0 0 0 -0 0 0 0 0 0 0 0 0 0 0 -0 -0 0 0 0 -0 -0 -0 -0 0 -0 -0 -0 0 0 0 0
0 -0 0 0 -0 0 -0 0 0 0 0 0 0 0 1 0 -0 -0 0 -0 -0 -0 0 0 0 0 0 0 0 0 0 0 0 0 0 0 0 0 0 0 0 0 0 0 0 0 0 0 0
0 0 0 0 -0 -0 -0 0 0 0 0 0 0 0 0 0 -0 -0 -0 -0 -0 -0 -0 -0 -0 -0 0 0 0 0 0 0 0 0 0 0 0 0 0 0 0 -0 -0 0 0 0 0 0 0
0 0 0 0 0 -0 0 0 0 0 0 0 0 0 0 0 -0 -0 -0 -0 -0 -0 -0 -0 -0 -0 -0 -0 -1 -1 -0 0 0 0 0 -0 -0 -0 -0 -0 -0 0 -0 -0 0 0 0 0 0
-0 0 0 0 0 0 0 0 0 0 0 0 0 -0 0 -0 -0 -0 -0 0 -0 -0 -0 -0 -0 -0 -0 -0 -0 -0 -1 -0 -0 0 0 0 -0 -0 0 0 -0 -0 -0 -0 0 0 -0 -0 -0
0 0 0 0 0 0 0 0 0 0 0 0 -0 -0 0 0 -0 -0 -0 -0 -0 -0 -0 -0 -0 -0 -0 -0 -0 -0 -0 -0 -0 0 0 0 0 0 -0 0 -0 -0 -0 -0 -0 -0 -0 -0 0
0 -0 0 0 0 0 0 0 0 0 0 0 0 0 -0 0 -0 -0 -0 -0 -0 -0 -0 -0 -0 -0 -0 -0 -0 -0 -0 -0 -0 0 0 0 0 0 0 0 -0 -0 -0 -0 -0 -0 0 0 0
0 0 -0 0 0 0 0 0 0 0 0 0 0 0 0 0 0 0 0 -0 -0 -0 -0 -0 -0 -0 -0 -0 -0 -0 -0 -0 0 0 0 0 0 0 0 0 0 -0 -0 -0 -0 0 0 0 0
0 0 0 0 0 0 0 0 0 0 0 0 0 0 0 0 0 0 0 0 0 0 0 -0 0 -0 0 0 -0 -0 -0 -0 0 0 0 0 0 0 0 0 0 0 0 0 0 0 0 0 0
-0 -0 0 0 0 0 0 0 0 0 0 0 0 0 0 0 0 0 0 0 0 0 0 0 0 0 0 0 0 0 0 0 0 0 0 0 0 0 0 0 0 0 0 0 0 0 0 0 0
0 0 0 0 0 0 0 0 0 0 0 0 0 0 0 0 0 0 0 0 0 0 0 0 0 0 0 0 0 0 0 0 0 0 0 0 0 0 0 0 0 0 0 0 0 0 0 0 0
0 0 0 0 0 0 0 0 0 0 0 0 0 0 0 0 0 0 0 0 0 0 0 0 0 0 0 0 0 0 0 0 0 0 0 0 0 0 0 0 0 0 0 0 0 0 0 0 0
0 0 0 0 0 0 0 0 0 0 0 0 0 0 0 0 0 0 0 0 0 0 0 0 0 0 0 0 0 0 0 0 0 0 0 0 0 0 0 0 0 0 0 0 0 0 0 0 0
0 0 0 0 0 0 0 0 0 0 0 0 0 0 0 0 0 0 0 0 0 0 0 0 0 0 0 0 0 -0 0 0 0 0 0 0 0 0 0 0 0 0 0 0 0 0 0 0 0
0 0 0 0 0 0 0 0 0 0 0 0 0 0 0 0 0 0 0 0 0 0 0 0 0 0 0 0 0 0 -0 -0 0 0 0 0 0 0 0 0 0 0 0 0 0 0 0 0 0
Wind_Speed_500mb
9 10 10 5 7 9 7 10 5 7 6 10 8 6 10 6 5 8 2 25 21 38 47 53 50 41 37 35 36 39 41 42 42 44 46 46 45 40 38 38 40 41 40 37 36 35 34 33 30
7 12 8 4 8 6 9 9 11 15 6 3 8 4 4 7 4 6 4 25 20 38 46 53 54 47 41 37 35 36 37 40 42 44 46 45 42 40 39 39 38 37 38 36 35 34 33 32 32
3 7 6 7 5 6 8 13 21 18 23 9 5 5 6 6 3 4 6 19 13 34 46 52 55 51 44 41 38 35 35 35 37 39 41 41 39 37 36 36 35 36 37 36 34 32 29 28 30
1 1 6 7 8 15 12 17 21 7 14 18 3 9 6 5 0 5 9 11 14 29 46 49 54 54 48 45 42 39 37 36 37 37 37 37 37 35 33 32 32 33 33 33 32 31 30 31 31
5 2 6 1 11 12 13 20 12 3 15 7 7 8 6 5 5 9 15 16 16 26 36 48 50 53 50 47 45 43 41 39 38 38 37 36 36 36 35 33 33 33 34 35 36 37 37 37 37
5 4 7 4 10 13 15 18 5 7 8 8 5 6 4 10 9 13 18 20 26 27 34 43 47 52 50 47 45 44 42 40 38 37 37 37 38 38 37 35 35 35 34 33 34 35 37 38 39
9 7 6 7 10 13 11 44 7 2 11 10 4 5 3 15 14 15 20 24 30 32 30 38 44 49 50 47 45 43 40 38 37 37 37 38 38 38 37 37 35 33 31 30 30 33 37 40 42
6 8 1 7 6 11 14 41 20 10 9 2 13 10 7 21 18 19 25 29 31 32 29 39 46 49 51 49 47 45 42 39 38 38 38 38 39 38 38 37 37 36 34 31 30 29 34 39 42
6 8 3 8 5 13 11 16 15 8 6 6 18 21 14 21 22 26 27 28 27 28 31 39 46 50 51 49 47 47 46 43 42 42 40 39 41 40 41 41 40 38 37 36 33 31 31 32 38
8 7 12 9 7 11 26 9 30 23 12 5 16 29 24 28 25 23 18 20 28 33 34 41 47 50 52 52 51 50 51 50 47 47 44 43 41 41 42 42 41 42 42 41 39 37 35 34 34
6 7 8 14 20 15 11 14 23 18 11 18 36 26 16 31 26 20 11 13 31 36 39 42 47 51 53 51 50 53 53 52 51 49 46 46 45 44 45 44 44 44 45 47 45 43 42 39 34
4 19 12 12 8 9 9 9 19 45 27 41 23 12 26 28 24 15 10 18 29 34 42 48 45 51 56 57 56 55 52 51 50 48 47 48 49 50 50 50 49 49 47 48 48 45 41 39 36
8 8 8 15 23 32 49 34 27 56 57 38 44 44 46 29 13 9 14 11 43 37 38 50 55 54 57 61 61 61 59 53 49 48 48 49 52 55 55 54 55 52 50 50 50 47 45 44 42
13 10 12 4 27 27 35 31 17 50 43 56 66 67 58 44 22 11 21 30 52 56 39 43 45 58 65 67 63 64 61 58 55 55 57 59 61 62 63 63 62 59 59 56 53 52 51 52 50
7 9 8 19 8 10 19 28 27 49 46 64 66 64 58 50 31 26 18 26 47 55 62 47 64 68 69 71 66 66 58 55 55 60 64 67 66 64 66 65 63 61 56 54 52 51 50 54 53
13 12 8 9 17 16 16 6 20 39 44 52 53 67 64 63 54 47 42 42 49 62 54 24 20 32 40 53 56 53 50 52 49 51 50 48 35 40 37 46 60 61 63 63 62 54 50 53 52
15 4 7 5 30 5 14 6 23 34 34 39 53 59 57 56 61 61 59 66 72 54 64 64 38 23 31 40 44 30 38 35 23 18 6 25 40 61 39 41 64 73 81 66 62 65 33 56 58
4 6 11 11 14 34 25 14 12 23 33 36 47 55 61 64 55 54 57 63 69 69 70 71 71 68 49 41 27 18 18 10 57 77 60 77 76 70 92 63 65 85 78 73 60 52 39 62 66
5 11 19 4 5 20 8 13 14 15 24 28 33 57 65 59 51 57 61 66 71 77 79 81 81 78 73 70 64 54 43 36 31 50 60 57 67 37 57 55 55 48 62 76 71 63 50 66 61
5 15 8 11 7 15 7 16 10 18 10 14 19 41 66 53 54 56 59 61 70 73 72 70 71 72 74 72 65 54 44 38 33 28 27 26 42 35 43 43 54 61 63 57 31 49 52 58 53
5 11 9 14 6 11 3 10 13 10 22 12 6 15 56 56 42 46 51 52 63 66 64 63 63 65 68 68 63 55 45 38 34 31 28 20 32 42 57 55 59 60 61 37 41 57 53 66 62
4 10 10 28 9 7 5 5 11 10 13 18 30 24 53 47 34 40 43 47 57 60 59 61 61 62 62 63 63 59 51 40 36 34 29 28 29 31 39 45 45 49 51 64 70 75 67 47 40
7 9 11 9 9 10 10 10 10 10 9 12 30 32 31 31 31 38 36 41 49 52 54 58 60 64 64 56 46 52 46 40 38 35 34 30 30 33 39 44 51 55 59 60 62 51 40 36 37
8 10 15 10 7 7 7 8 8 5 5 5 11 7 10 19 23 26 27 36 39 43 52 54 57 58 54 49 51 46 46 56 59 53 43 36 31 35 37 37 41 49 53 53 48 47 42 42 42
16 14 7 9 10 5 8 8 10 7 1 8 15 8 1 4 11 19 28 38 43 49 49 49 52 55 53 45 44 47 50 52 48 49 47 45 45 40 34 39 41 38 38 33 30 32 35 37 33
9 10 10 4 2 5 10 5 5 5 18 14 15 11 5 4 9 22 30 33 41 50 50 44 39 47 50 50 55 55 55 47 42 42 45 42 42 46 43 42 44 40 34 25 20 17 18 19 20
4 10 8 13 6 7 3 2 5 8 8 12 15 9 3 6 13 16 21 30 43 46 47 50 49 56 53 55 59 62 57 51 47 42 41 41 38 39 42 45 46 37 28 16 12 10 8 10 11
10 8 9 8 4 1 5 2 5 10 6 7 9 9 7 11 10 16 24 31 30 32 39 41 50 55 57 62 69 66 59 54 51 49 47 46 41 38 39 39 44 43 30 23 13 9 11 12 16
12 8 13 10 7 9 3 7 8 7 5 9 16 20 19 18 19 23 30 31 30 32 37 42 44 44 54 66 72 71 73 76 73 63 48 43 41 41 36 31 33 41 42 29 24 18 18 18 19
5 3 7 9 5 4 6 7 10 11 22 25 20 17 15 16 22 27 32 34 39 44 43 32 36 48 62 66 66 68 73 79 63 49 48 40 32 33 30 26 29 31 30 32 32 30 28 25 23
Wind_Direction_500mb
288 341 359 89 53 56 281 265 292 238 250 214 257 141 184 239 190 220 218 172 170 185 179 178 178 178 179 176 171 168 169 169 170 171 173 177 177 178 180 181 179 180 180 179 181 181 179 180 181
293 332 350 73 80 33 271 272 258 245 265 178 229 86 15 267 271 345 100 167 176 190 185 181 180 180 182 178 174 171 170 169 171 173 176 179 181 183 184 183 184 186 187 188 188 187 189 190 195
311 314 335 83 119 191 244 229 231 255 265 227 43 243 240 230 9 19 118 163 183 196 192 185 183 182 184 183 179 175 174 175 176 177 179 181 183 185 187 188 190 192 195 198 199 199 198 200 203
70 23 55 76 270 250 235 268 238 286 89 179 296 270 245 184 41 14 146 152 152 193 192 190 187 184 186 187 185 182 182 182 183 185 187 189 189 189 193 194 197 200 205 209 212 214 214 215 215
213 110 52 29 255 264 250 272 305 197 130 179 204 261 216 155 204 129 147 155 166 181 195 194 190 189 190 193 193 191 191 192 192 192 193 194 195 197 198 199 204 208 213 217 220 222 222 221 222
115 98 50 293 271 273 292 316 324 131 115 170 226 231 212 142 136 145 173 175 186 190 199 195 192 192 195 199 202 202 202 203 201 201 201 201 202 204 207 210 214 217 219 222 227 229 230 230 230
134 94 199 247 271 307 288 344 21 153 153 233 196 223 258 163 150 164 179 177 188 199 200 193 194 196 200 204 209 212 213 212 209 208 209 210 212 213 214 217 220 222 224 228 231 233 233 235 235
181 92 159 246 278 286 326 347 321 218 229 340 187 252 278 183 168 175 183 185 194 201 205 198 197 200 205 208 213 219 222 221 220 218 218 218 220 222 223 225 227 229 231 234 237 238 237 236 238
168 61 281 257 191 273 337 1 326 295 171 177 229 284 280 186 176 186 183 194 207 217 214 210 204 205 210 214 218 222 227 226 226 226 226 226 228 229 231 233 235 237 240 242 243 246 247 246 245
109 116 226 217 222 281 315 19 337 346 359 167 257 256 262 190 156 157 169 208 223 225 224 225 221 214 215 217 221 225 228 229 229 230 231 234 235 237 239 240 242 245 247 248 249 250 251 251 249
171 199 212 283 288 312 307 73 45 5 9 324 291 293 119 138 141 152 179 275 253 241 235 232 233 231 225 226 228 231 231 233 235 237 239 242 243 243 245 247 248 250 251 253 253 253 251 250 256
342 255 227 318 4 6 4 60 65 34 336 321 298 186 137 131 143 152 102 352 292 277 260 243 244 245 239 235 235 240 242 242 243 245 249 252 255 256 254 255 255 256 260 265 266 264 261 262 264
171 263 98 307 94 79 86 57 62 28 18 70 97 93 85 90 122 165 217 343 16 320 296 268 258 254 252 246 242 243 248 250 253 255 255 257 262 264 262 264 266 269 272 273 271 266 262 264 268
206 287 329 144 96 81 81 36 49 6 31 61 87 79 75 75 69 32 334 282 288 310 299 279 271 269 265 259 255 254 255 259 260 263 267 273 277 277 278 276 277 277 277 276 272 266 267 271 276
297 41 38 23 309 136 71 35 24 17 47 56 68 79 74 68 62 42 353 302 300 317 305 275 272 280 280 270 266 265 268 282 284 284 286 289 291 287 282 281 277 277 276 274 275 266 258 261 269
16 75 67 3 360 21 97 20 14 48 47 53 54 63 63 65 57 51 43 33 27 20 13 349 285 284 289 281 285 275 274 278 299 297 293 282 308 301 302 305 286 273 269 272 270 268 269 273 274
7 38 24 45 5 76 68 123 7 48 66 68 64 60 68 61 61 56 46 46 46 31 36 27 27 355 320 310 301 292 260 262 313 328 87 5 354 337 312 308 322 292 274 271 281 276 265 267 269
353 57 60 59 342 70 62 58 14 58 72 76 76 69 67 61 55 52 48 46 51 55 48 46 45 45 46 31 14 346 319 281 301 301 274 294 299 282 282 285 279 271 271 266 273 271 263 277 274
101 90 111 131 143 65 52 66 28 65 66 74 83 83 73 67 64 62 55 49 45 42 41 43 47 51 50 48 46 42 34 12 339 274 276 278 264 246 258 257 255 292 255 264 283 270 269 268 270
118 113 87 53 20 90 149 49 339 27 20 99 92 100 90 78 67 62 61 57 57 54 50 46 42 39 38 37 36 36 32 24 10 354 272 259 235 258 277 280 274 285 282 285 289 243 266 270 275
119 124 190 131 109 26 165 35 6 340 10 57 172 70 83 73 65 65 62 60 51 48 45 41 39 36 31 30 26 22 17 12 8 360 344 316 270 265 275 280 278 266 270 239 269 288 275 281 283
89 174 167 142 118 172 53 236 343 351 328 1 20 73 61 61 61 59 51 47 49 45 39 34 31 33 28 20 15 16 11 0 352 344 338 329 316 302 289 273 277 276 254 256 278 285 286 276 263
186 89 131 122 92 107 17 77 276 352 341 344 7 36 44 43 44 48 39 39 40 33 24 21 21 20 21 26 29 17 8 357 342 330 329 315 317 319 311 289 281 282 276 275 276 276 276 253 251
122 88 55 56 81 46 312 116 282 256 284 338 323 357 20 43 47 43 33 30 23 14 5 1 7 12 13 8 9 11 7 355 346 342 325 320 315 316 321 319 300 287 281 276 270 261 264 264 257
60 53 3 19 21 198 317 56 247 323 147 244 225 239 338 44 33 21 21 18 10 7 6 0 356 355 1 358 357 358 354 350 348 344 337 328 319 318 318 324 329 315 299 285 280 266 259 259 249
59 125 139 182 191 240 357 65 266 271 304 233 204 198 196 286 10 21 13 4 3 1 360 359 356 4 2 359 355 351 348 343 339 336 336 330 324 321 315 316 321 320 310 301 288 279 264 248 222
156 55 160 105 25 80 279 338 340 349 39 141 154 144 129 34 31 20 360 356 352 347 350 356 359 358 358 357 353 348 347 342 333 324 319 319 316 319 317 315 311 316 316 308 286 266 241 226 206
105 146 52 16 85 351 328 115 252 339 11 37 72 115 58 37 28 0 354 349 357 354 352 352 355 351 349 350 350 349 350 347 340 332 323 312 303 303 311 312 307 308 294 283 256 213 195 188 187
4 25 50 107 110 157 186 260 359 321 41 66 72 87 64 35 4 350 349 349 345 341 346 348 347 345 350 349 347 346 344 343 339 334 316 300 300 299 294 291 294 291 288 275 264 243 221 207 205
38 109 111 111 223 69 133 256 350 76 88 85 68 49 24 3 357 352 349 347 341 343 343 344 346 354 351 349 347 345 345 348 350 358 347 342 320 306 308 294 288 288 282 274 265 252 230 213 202
Wind_Speed_850mb
9 10 10 5 7 9 7 10 5 7 6 10 8 6 10 6 5 8 2 25 21 38 47 53 50 41 37 35 36 39 41 42 42 44 46 46 45 40 38 38 40 41 40 37 36 35 34 33 30
7 12 8 4 8 6 9 9 11 15 6 3 8 4 4 7 4 6 4 25 20 38 46 53 54 47 41 37 35 36 37 40 42 44 46 45 42 40 39 39 38 37 38 36 35 34 33 32 32
3 7 6 7 5 6 8 13 21 18 23 9 5 5 6 6 3 4 6 19 13 34 46 52 55 51 44 41 38 35 35 35 37 39 41 41 39 37 36 36 35 36 37 36 34 32 29 28 30
1 1 6 7 8 15 12 17 21 7 14 18 3 9 6 5 0 5 9 11 14 29 46 49 54 54 48 45 42 39 37 36 37 37 37 37 37 35 33 32 32 33 33 33 32 31 30 31 31
5 2 6 1 11 12 13 20 12 3 15 7 7 8 6 5 5 9 15 16 16 26 36 48 50 53 50 47 45 43 41 39 38 38 37 36 36 36 35 33 33 33 34 35 36 37 37 37 37
5 4 7 4 10 13 15 18 5 7 8 8 5 6 4 10 9 13 18 20 26 27 34 43 47 52 50 47 45 44 42 40 38 37 37 37 38 38 37 35 35 35 34 33 34 35 37 38 39
9 7 6 7 10 13 11 44 7 2 11 10 4 5 3 15 14 15 20 24 30 32 30 38 44 49 50 47 45 43 40 38 37 37 37 38 38 38 37 37 35 33 31 30 30 33 37 40 42
6 8 1 7 6 11 14 41 20 10 9 2 13 10 7 21 18 19 25 29 31 32 29 39 46 49 51 49 47 45 42 39 38 38 38 38 39 38 38 37 37 36 34 31 30 29 34 39 42
6 8 3 8 5 13 11 16 15 8 6 6 18 21 14 21 22 26 27 28 27 28 31 39 46 50 51 49 47 47 46 43 42 42 40 39 41 40 41 41 40 38 37 36 33 31 31 32 38
8 7 12 9 7 11 26 9 30 23 12 5 16 29 24 28 25 23 18 20 28 33 34 41 47 50 52 52 51 50 51 50 47 47 44 43 41 41 42 42 41 42 42 41 39 37 35 34 34
6 7 8 14 20 15 11 14 23 18 11 18 36 26 16 31 26 20 11 13 31 36 39 42 47 51 53 51 50 53 53 52 51 49 46 46 45 44 45 44 44 44 45 47 45 43 42 39 34
4 19 12 12 8 9 9 9 19 45 27 41 23 12 26 28 24 15 10 18 29 34 42 48 45 51 56 57 56 55 52 51 50 48 47 48 49 50 50 50 49 49 47 48 48 45 41 39 36
8 8 8 15 23 32 49 34 27 56 57 38 44 44 46 29 13 9 14 11 43 37 38 50 55 54 57 61 61 61 59 53 49 48 48 49 52 55 55 54 55 52 50 50 50 47 45 44 42
13 10 12 4 27 27 35 31 17 50 43 56 66 67 58 44 22 11 21 30 52 56 39 43 45 58 65 67 63 64 61 58 55 55 57 59 61 62 63 63 62 59 59 56 53 52 51 52 50
7 9 8 19 8 10 19 28 27 49 46 64 66 64 58 50 31 26 18 26 47 55 62 47 64 68 69 71 66 66 58 55 55 60 64 67 66 64 66 65 63 61 56 54 52 51 50 54 53
13 12 8 9 17 16 16 6 20 39 44 52 53 67 64 63 54 47 42 42 49 62 54 24 20 32 40 53 56 53 50 52 49 51 50 48 35 40 37 46 60 61 63 63 62 54 50 53 52
15 4 7 5 30 5 14 6 23 34 34 39 53 59 57 56 61 61 59 66 72 54 64 64 38 23 31 40 44 30 38 35 23 18 6 25 40 61 39 41 64 73 81 66 62 65 33 56 58
4 6 11 11 14 34 25 14 12 23 33 36 47 55 61 64 55 54 57 63 69 69 70 71 71 68 49 41 27 18 18 10 57 77 60 77 76 70 92 63 65 85 78 73 60 52 39 62 66
5 11 19 4 5 20 8 13 14 15 24 28 33 57 65 59 51 57 61 66 71 77 79 81 81 78 73 70 64 54 43 36 31 50 60 57 67 37 57 55 55 48 62 76 71 63 50 66 61
5 15 8 11 7 15 7 16 10 18 10 14 19 41 66 53 54 56 59 61 70 73 72 70 71 72 74 72 65 54 44 38 33 28 27 26 42 35 43 43 54 61 63 57 31 49 52 58 53
5 11 9 14 6 11 3 10 13 10 22 12 6 15 56 56 42 46 51 52 63 66 64 63 63 65 68 68 63 55 45 38 34 31 28 20 32 42 57 55 59 60 61 37 41 57 53 66 62
4 10 10 28 9 7 5 5 11 10 13 18 30 24 53 47 34 40 43 47 57 60 59 61 61 62 62 63 63 59 51 40 36 34 29 28 29 31 39 45 45 49 51 64 70 75 67 47 40
7 9 11 9 9 10 10 10 10 10 9 12 30 32 31 31 31 38 36 41 49 52 54 58 60 64 64 56 46 52 46 40 38 35 34 30 30 33 39 44 51 55 59 60 62 51 40 36 37
8 10 15 10 7 7 7 8 8 5 5 5 11 7 10 19 23 26 27 36 39 43 52 54 57 58 54 49 51 46 46 56 59 53 43 36 31 35 37 37 41 49 53 53 48 47 42 42 42
16 14 7 9 10 5 8 8 10 7 1 8 15 8 1 4 11 19 28 38 43 49 49 49 52 55 53 45 44 47 50 52 48 49 47 45 45 40 34 39 41 38 38 33 30 32 35 37 33
9 10 10 4 2 5 10 5 5 5 18 14 15 11 5 4 9 22 30 33 41 50 50 44 39 47 50 50 55 55 55 47 42 42 45 42 42 46 43 42 44 40 34 25 20 17 18 19 20
4 10 8 13 6 7 3 2 5 8 8 12 15 9 3 6 13 16 21 30 43 46 47 50 49 56 53 55 59 62 57 51 47 42 41 41 38 39 42 45 46 37 28 16 12 10 8 10 11
10 8 9 8 4 1 5 2 5 10 6 7 9 9 7 11 10 16 24 31 30 32 39 41 50 55 57 62 69 66 59 54 51 49 47 46 41 38 39 39 44 43 30 23 13 9 11 12 16
12 8 13 10 7 9 3 7 8 7 5 9 16 20 19 18 19 23 30 31 30 32 37 42 44 44 54 66 72 71 73 76 73 63 48 43 41 41 36 31 33 41 42 29 24 18 18 18 19
5 3 7 9 5 4 6 7 10 11 22 25 20 17 15 16 22 27 32 34 39 44 43 32 36 48 62 66 66 68 73 79 63 49 48 40 32 33 30 26 29 31 30 32 32 30 28 25 23
Wind_Direction_850mb
288 341 359 89 53 56 281 265 292 238 250 214 257 141 184 239 190 220 218 172 170 185 179 178 178 178 179 176 171 168 169 169 170 171 173 177 177 178 180 181 179 180 180 179 181 181 179 180 181
293 332 350 73 80 33 271 272 258 245 265 178 229 86 15 267 271 345 100 167 176 190 185 181 180 180 182 178 174 171 170 169 171 173 176 179 181 183 184 183 184 186 187 188 188 187 189 190 195
311 314 335 83 119 191 244 229 231 255 265 227 43 243 240 230 9 19 118 163 183 196 192 185 183 182 184 183 179 175 174 175 176 177 179 181 183 185 187 188 190 192 195 198 199 199 198 200 203
70 23 55 76 270 250 235 268 238 286 89 179 296 270 245 184 41 14 146 152 152 193 192 190 187 184 186 187 185 182 182 182 183 185 187 189 189 189 193 194 197 200 205 209 212 214 214 215 215
213 110 52 29 255 264 250 272 305 197 130 179 204 261 216 155 204 129 147 155 166 181 195 194 190 189 190 193 193 191 191 192 192 192 193 194 195 197 198 199 204 208 213 217 220 222 222 221 222
115 98 50 293 271 273 292 316 324 131 115 170 226 231 212 142 136 145 173 175 186 190 199 195 192 192 195 199 202 202 202 203 201 201 201 201 202 204 207 210 214 217 219 222 227 229 230 230 230
134 94 199 247 271 307 288 344 21 153 153 233 196 223 258 163 150 164 179 177 188 199 200 193 194 196 200 204 209 212 213 212 209 208 209 210 212 213 214 217 220 222 224 228 231 233 233 235 235
181 92 159 246 278 286 326 347 321 218 229 340 187 252 278 183 168 175 183 185 194 201 205 198 197 200 205 208 213 219 222 221 220 218 218 218 220 222 223 225 227 229 231 234 237 238 237 236 238
168 61 281 257 191 273 337 1 326 295 171 177 229 284 280 186 176 186 183 194 207 217 214 210 204 205 210 214 218 222 227 226 226 226 226 226 228 229 231 233 235 237 240 242 243 246 247 246 245
109 116 226 217 222 281 315 19 337 346 359 167 257 256 262 190 156 157 169 208 223 225 224 225 221 214 215 217 221 225 228 229 229 230 231 234 235 237 239 240 242 245 247 248 249 250 251 251 249
171 199 212 283 288 312 307 73 45 5 9 324 291 293 119 138 141 152 179 275 253 241 235 232 233 231 225 226 228 231 231 233 235 237 239 242 243 243 245 247 248 250 251 253 253 253 251 250 256
342 255 227 318 4 6 4 60 65 34 336 321 298 186 137 131 143 152 102 352 292 277 260 243 244 245 239 235 235 240 242 242 243 245 249 252 255 256 254 255 255 256 260 265 266 264 261 262 264
171 263 98 307 94 79 86 57 62 28 18 70 97 93 85 90 122 165 217 343 16 320 296 268 258 254 252 246 242 243 248 250 253 255 255 257 262 264 262 264 266 269 272 273 271 266 262 264 268
206 287 329 144 96 81 81 36 49 6 31 61 87 79 75 75 69 32 334 282 288 310 299 279 271 269 265 259 255 254 255 259 260 263 267 273 277 277 278 276 277 277 277 276 272 266 267 271 276
297 41 38 23 309 136 71 35 24 17 47 56 68 79 74 68 62 42 353 302 300 317 305 275 272 280 280 270 266 265 268 282 284 284 286 289 291 287 282 281 277 277 276 274 275 266 258 261 269
16 75 67 3 360 21 97 20 14 48 47 53 54 63 63 65 57 51 43 33 27 20 13 349 285 284 289 281 285 275 274 278 299 297 293 282 308 301 302 305 286 273 269 272 270 268 269 273 274
7 38 24 45 5 76 68 123 7 48 66 68 64 60 68 61 61 56 46 46 46 31 36 27 27 355 320 310 301 292 260 262 313 328 87 5 354 337 312 308 322 292 274 271 281 276 265 267 269
353 57 60 59 342 70 62 58 14 58 72 76 76 69 67 61 55 52 48 46 51 55 48 46 45 45 46 31 14 346 319 281 301 301 274 294 299 282 282 285 279 271 271 266 273 271 263 277 274
101 90 111 131 143 65 52 66 28 65 66 74 83 83 73 67 64 62 55 49 45 42 41 43 47 51 50 48 46 42 34 12 339 274 276 278 264 246 258 257 255 292 255 264 283 270 269 268 270
118 113 87 53 20 90 149 49 339 27 20 99 92 100 90 78 67 62 61 57 57 54 50 46 42 39 38 37 36 36 32 24 10 354 272 259 235 258 277 280 274 285 282 285 289 243 266 270 275
119 124 190 131 109 26 165 35 6 340 10 57 172 70 83 73 65 65 62 60 51 48 45 41 39 36 31 30 26 22 17 12 8 360 344 316 270 265 275 280 278 266 270 239 269 288 275 281 283
89 174 167 142 118 172 53 236 343 351 328 1 20 73 61 61 61 59 51 47 49 45 39 34 31 33 28 20 15 16 11 0 352 344 338 329 316 302 289 273 277 276 254 256 278 285 286 276 263
186 89 131 122 92 107 17 77 276 352 341 344 7 36 44 43 44 48 39 39 40 33 24 21 21 20 21 26 29 17 8 357 342 330 329 315 317 319 311 289 281 282 276 275 276 276 276 253 251
122 88 55 56 81 46 312 116 282 256 284 338 323 357 20 43 47 43 33 30 23 14 5 1 7 12 13 8 9 11 7 355 346 342 325 320 315 316 321 319 300 287 281 276 270 261 264 264 257
60 53 3 19 21 198 317 56 247 323 147 244 225 239 338 44 33 21 21 18 10 7 6 0 356 355 1 358 357 358 354 350 348 344 337 328 319 318 318 324 329 315 299 285 280 266 259 259 249
59 125 139 182 191 240 357 65 266 271 304 233 204 198 196 286 10 21 13 4 3 1 360 359 356 4 2 359 355 351 348 343 339 336 336 330 324 321 315 316 321 320 310 301 288 279 264 248 222
156 55 160 105 25 80 279 338 340 349 39 141 154 144 129 34 31 20 360 356 352 347 350 356 359 358 358 357 353 348 347 342 333 324 319 319 316 319 317 315 311 316 316 308 286 266 241 226 206
105 146 52 16 85 351 328 115 252 339 11 37 72 115 58 37 28 0 354 349 357 354 352 352 355 351 349 350 350 349 350 347 340 332 323 312 303 303 311 312 307 308 294 283 256 213 195 188 187
4 25 50 107 110 157 186 260 359 321 41 66 72 87 64 35 4 350 349 349 345 341 346 348 347 345 350 349 347 346 344 343 339 334 316 300 300 299 294 291 294 291 288 275 264 243 221 207 205
38 109 111 111 223 69 133 256 350 76 88 85 68 49 24 3 357 352 349 347 341 343 343 344 346 354 351 349 347 345 345 348 350 358 347 342 320 306 308 294 288 288 282 274 265 252 230 213 202